User: anonymous   Login
Location: Unspecified
(0.0000°N, 0.0000°E)
Time: 00:23:46
(UTC+00:00)
Language:

SAR-Lupe-4 - Orbit

View from above orbital plane
View from above orbital plane
View from above satellite
View from above satellite

Ground track
Ground track

The orbit data is extracted from the following two-line orbital elements,

1 32750U 08014A   17085.81956295 0.00000150  00000-0  56504-5 0    00
2 32750  98.1453 128.2190 0001000   9.9321 350.0677 15.27124290    08
Epoch (UTC): 26 March 2017 19:40:10
Eccentricity: 0.0001000
inclination: 98.1453°
perigee height: 484 km
apogee height: 485 km
right ascension of ascending node: 128.2190°
argument of perigee: 9.9321°
revolutions per day: 15.27124290
mean anomaly at epoch: 350.0677°
orbit number at epoch: 0

The dashed part of the orbit path shows where the satellite is in the earth's shadow,  

DLR